Time,TemperatureF,DewpointF,PressureIn,WindDirection,WindDirectionDegrees,WindSpeedMPH,WindSpeedGustMPH,Humidity,HourlyPrecipIn,Conditions,Clouds,dailyrainin,SoftwareType,DateUTC
2013-08-07 00:00:00,66.8,60.8,29.89,ESE,123,0.0,3.0,81,0.00,,CLR,0.00,VWS V13.01,2013-08-07 04:00:00,
2013-08-07 00:02:00,66.8,60.8,29.89,ESE,123,0.0,3.0,81,0.00,,CLR,0.00,VWS V13.01,2013-08-07 04:02:00,
2013-08-07 00:07:00,66.8,60.8,29.88,ESE,123,0.0,1.0,81,0.00,,CLR,0.00,VWS V13.01,2013-08-07 04:07:00,
2013-08-07 00:12:00,66.7,60.7,29.88,ESE,123,1.0,3.0,81,0.00,,CLR,0.00,VWS V13.01,2013-08-07 04:12:00,
2013-08-07 00:17:00,66.7,60.7,29.88,SE,124,0.0,3.0,81,0.00,,CLR,0.00,VWS V13.01,2013-08-07 04:17:00,
2013-08-07 00:22:00,66.7,60.7,29.88,SE,124,0.0,3.0,81,0.00,,CLR,0.00,VWS V13.01,2013-08-07 04:22:00,
2013-08-07 00:27:00,66.6,60.6,29.88,SE,124,0.0,3.0,81,0.00,,CLR,0.00,VWS V13.01,2013-08-07 04:27:00,
2013-08-07 00:32:00,66.6,60.2,29.89,SE,124,0.0,0.0,80,0.00,,CLR,0.00,VWS V13.01,2013-08-07 04:32:00,
2013-08-07 00:37:00,66.7,60.3,29.89,SE,124,0.0,1.0,80,0.00,,CLR,0.00,VWS V13.01,2013-08-07 04:37:00,
2013-08-07 00:42:00,66.8,60.4,29.89,SE,124,0.0,1.0,80,0.00,,CLR,0.00,VWS V13.01,2013-08-07 04:42:00,
2013-08-07 00:47:00,66.8,60.4,29.89,SE,126,0.0,3.0,80,0.00,,CLR,0.00,VWS V13.01,2013-08-07 04:47:00,
2013-08-07 00:52:00,66.9,60.5,29.89,SE,126,0.0,3.0,80,0.00,,CLR,0.00,VWS V13.01,2013-08-07 04:52:00,
2013-08-07 00:57:00,66.9,60.5,29.88,SE,126,1.0,3.0,80,0.00,,CLR,0.00,VWS V13.01,2013-08-07 04:57:00,
2013-08-07 01:02:00,66.9,60.5,29.88,SE,127,1.0,1.0,80,0.00,,CLR,0.00,VWS V13.01,2013-08-07 05:02:00,
2013-08-07 01:07:00,66.9,60.5,29.88,SE,127,1.0,2.0,80,0.00,,CLR,0.00,VWS V13.01,2013-08-07 05:07:00,
2013-08-07 01:12:00,66.9,60.5,29.88,SE,128,0.0,3.0,80,0.00,,CLR,0.00,VWS V13.01,2013-08-07 05:12:00,
2013-08-07 01:17:00,67.0,60.3,29.89,SE,128,0.0,3.0,79,0.00,,CLR,0.00,VWS V13.01,2013-08-07 05:17:00,
2013-08-07 01:22:00,67.0,60.6,29.89,SE,129,0.0,3.0,80,0.00,,CLR,0.00,VWS V13.01,2013-08-07 05:22:00,
2013-08-07 01:27:00,67.0,60.6,29.89,SE,130,0.0,3.0,80,0.00,,CLR,0.00,VWS V13.01,2013-08-07 05:27:00,
2013-08-07 01:32:00,66.9,60.5,29.89,SE,133,0.0,0.0,80,0.00,,CLR,0.00,VWS V13.01,2013-08-07 05:32:00,
2013-08-07 01:37:00,66.8,60.1,29.89,SE,133,0.0,3.0,79,0.00,,CLR,0.00,VWS V13.01,2013-08-07 05:37:00,
2013-08-07 01:42:00,66.8,60.4,29.89,SE,140,2.0,3.0,80,0.00,,CLR,0.00,VWS V13.01,2013-08-07 05:42:00,
2013-08-07 01:47:00,66.9,60.5,29.89,SE,140,0.0,3.0,80,0.00,,CLR,0.00,VWS V13.01,2013-08-07 05:47:00,
2013-08-07 01:52:00,66.9,60.5,29.88,SE,129,0.0,5.0,80,0.00,,CLR,0.00,VWS V13.01,2013-08-07 05:52:00,
2013-08-07 01:58:00,66.9,60.5,29.89,SSE,148,1.0,5.0,80,0.00,,CLR,0.00,VWS V13.01,2013-08-07 05:58:00,
2013-08-07 02:02:00,67.0,60.6,29.89,SSE,149,0.0,1.0,80,0.00,,CLR,0.00,VWS V13.01,2013-08-07 06:02:00,
2013-08-07 02:08:00,67.1,61.1,29.89,SE,140,0.0,6.0,81,0.00,,CLR,0.00,VWS V13.01,2013-08-07 06:08:00,
2013-08-07 02:13:00,67.2,61.2,29.89,SE,140,0.0,6.0,81,0.00,,CLR,0.00,VWS V13.01,2013-08-07 06:13:00,
2013-08-07 02:18:00,67.2,61.5,29.89,SE,144,0.0,6.0,82,0.00,,CLR,0.00,VWS V13.01,2013-08-07 06:18:00,
2013-08-07 02:23:00,67.2,61.5,29.89,SE,139,1.0,6.0,82,0.00,,CLR,0.00,VWS V13.01,2013-08-07 06:23:00,
2013-08-07 02:28:00,67.2,61.9,29.88,SE,139,0.0,6.0,83,0.00,,CLR,0.00,VWS V13.01,2013-08-07 06:28:00,
2013-08-07 02:33:00,67.2,61.9,29.88,SSE,147,0.0,5.0,83,0.00,,CLR,0.00,VWS V13.01,2013-08-07 06:33:00,
2013-08-07 02:38:00,67.1,61.8,29.88,SE,130,0.0,5.0,83,0.00,,CLR,0.00,VWS V13.01,2013-08-07 06:38:00,
2013-08-07 02:43:00,67.1,62.1,29.88,SSE,147,0.0,6.0,84,0.00,,CLR,0.00,VWS V13.01,2013-08-07 06:43:00,
2013-08-07 02:48:00,67.0,62.0,29.88,SE,137,1.0,6.0,84,0.00,,CLR,0.00,VWS V13.01,2013-08-07 06:48:00,
2013-08-07 02:53:00,66.9,61.9,29.88,SE,138,1.0,6.0,84,0.00,,CLR,0.00,VWS V13.01,2013-08-07 06:53:00,
2013-08-07 02:58:00,66.8,61.8,29.88,SE,130,1.0,9.0,84,0.00,,CLR,0.00,VWS V13.01,2013-08-07 06:58:00,
2013-08-07 03:03:00,66.8,62.2,29.88,SE,130,0.0,1.0,85,0.00,,CLR,0.00,VWS V13.01,2013-08-07 07:03:00,
2013-08-07 03:08:00,66.7,62.0,29.89,ESE,122,1.0,3.0,85,0.00,,CLR,0.00,VWS V13.01,2013-08-07 07:08:00,
2013-08-07 03:13:00,66.5,61.9,29.89,SE,136,0.0,3.0,85,0.00,,CLR,0.00,VWS V13.01,2013-08-07 07:13:00,
2013-08-07 03:18:00,66.4,61.8,29.89,SE,135,0.0,3.0,85,0.00,,CLR,0.00,VWS V13.01,2013-08-07 07:18:00,
2013-08-07 03:23:00,66.4,62.1,29.89,SSE,150,0.0,4.0,86,0.00,,CLR,0.00,VWS V13.01,2013-08-07 07:23:00,
2013-08-07 03:28:00,66.4,62.1,29.89,SE,130,2.0,6.0,86,0.00,,CLR,0.00,VWS V13.01,2013-08-07 07:28:00,
2013-08-07 03:33:00,66.3,62.0,29.89,SE,132,0.0,1.0,86,0.00,,CLR,0.00,VWS V13.01,2013-08-07 07:33:00,
2013-08-07 03:38:00,66.3,62.0,29.89,SE,143,0.0,5.0,86,0.00,,CLR,0.00,VWS V13.01,2013-08-07 07:38:00,
2013-08-07 03:43:00,66.3,62.0,29.89,SSE,155,3.0,5.0,86,0.00,,CLR,0.00,VWS V13.01,2013-08-07 07:43:00,
2013-08-07 03:48:00,66.4,62.1,29.89,SSE,149,0.0,5.0,86,0.00,,CLR,0.00,VWS V13.01,2013-08-07 07:48:00,
2013-08-07 03:53:00,66.3,62.0,29.89,SE,141,0.0,5.0,86,0.00,,CLR,0.00,VWS V13.01,2013-08-07 07:53:00,
2013-08-07 03:58:00,66.3,62.3,29.89,SE,134,0.0,6.0,87,0.00,,CLR,0.00,VWS V13.01,2013-08-07 07:58:00,
2013-08-07 04:03:00,66.2,62.2,29.89,SE,138,0.0,3.0,87,0.00,,CLR,0.00,VWS V13.01,2013-08-07 08:03:00,
2013-08-07 04:08:00,66.1,62.1,29.89,SE,140,4.0,4.0,87,0.00,,CLR,0.00,VWS V13.01,2013-08-07 08:08:00,
2013-08-07 04:13:00,66.0,62.0,29.89,SE,138,0.0,4.0,87,0.00,,CLR,0.00,VWS V13.01,2013-08-07 08:13:00,
2013-08-07 04:18:00,66.0,62.0,29.89,ESE,116,1.0,4.0,87,0.00,,CLR,0.00,VWS V13.01,2013-08-07 08:18:00,
2013-08-07 04:23:00,65.9,62.2,29.89,SSE,154,0.0,4.0,88,0.00,,CLR,0.00,VWS V13.01,2013-08-07 08:23:00,
2013-08-07 04:28:00,65.9,62.2,29.89,SSE,152,0.0,6.0,88,0.00,,CLR,0.00,VWS V13.01,2013-08-07 08:28:00,
2013-08-07 04:33:00,65.8,62.2,29.89,SSE,152,0.0,2.0,88,0.00,,CLR,0.00,VWS V13.01,2013-08-07 08:33:00,
2013-08-07 04:38:00,65.7,62.0,29.89,South,176,2.0,3.0,88,0.00,,CLR,0.00,VWS V13.01,2013-08-07 08:38:00,
2013-08-07 04:43:00,65.6,62.0,29.88,South,171,0.0,3.0,88,0.00,,CLR,0.00,VWS V13.01,2013-08-07 08:43:00,
2013-08-07 04:48:00,65.6,62.0,29.88,SE,140,0.0,3.0,88,0.00,,CLR,0.00,VWS V13.01,2013-08-07 08:48:00,
2013-08-07 04:53:00,65.6,62.0,29.88,SSE,155,0.0,6.0,88,0.00,,CLR,0.00,VWS V13.01,2013-08-07 08:53:00,
2013-08-07 04:58:00,65.5,62.2,29.88,SE,140,0.0,6.0,89,0.00,,CLR,0.00,VWS V13.01,2013-08-07 08:58:00,
2013-08-07 05:03:00,65.5,62.2,29.88,SSE,148,0.0,6.0,89,0.00,,CLR,0.00,VWS V13.01,2013-08-07 09:03:00,
2013-08-07 05:08:00,65.4,62.1,29.88,SSE,152,0.0,6.0,89,0.00,,CLR,0.00,VWS V13.01,2013-08-07 09:08:00,
2013-08-07 05:13:00,65.4,62.1,29.88,SE,142,0.0,6.0,89,0.00,,CLR,0.00,VWS V13.01,2013-08-07 09:13:00,
2013-08-07 05:18:00,65.4,62.1,29.88,SE,146,0.0,6.0,89,0.00,,CLR,0.00,VWS V13.01,2013-08-07 09:18:00,
2013-08-07 05:23:00,65.4,62.1,29.88,South,174,4.0,6.0,89,0.00,,CLR,0.00,VWS V13.01,2013-08-07 09:23:00,
2013-08-07 05:28:00,65.4,62.1,29.88,SE,129,0.0,6.0,89,0.00,,CLR,0.00,VWS V13.01,2013-08-07 09:28:00,
2013-08-07 05:33:00,65.4,62.4,29.88,SE,131,2.0,4.0,90,0.00,,CLR,0.00,VWS V13.01,2013-08-07 09:33:00,
2013-08-07 05:38:00,65.4,62.4,29.88,ESE,120,0.0,5.0,90,0.00,,CLR,0.00,VWS V13.01,2013-08-07 09:38:00,
2013-08-07 05:43:00,65.4,62.4,29.88,ESE,120,0.0,5.0,90,0.00,,CLR,0.00,VWS V13.01,2013-08-07 09:43:00,
2013-08-07 05:48:00,65.4,62.4,29.88,SSE,156,0.0,5.0,90,0.00,,CLR,0.00,VWS V13.01,2013-08-07 09:48:00,
2013-08-07 05:53:00,65.3,62.3,29.87,SE,135,0.0,5.0,90,0.00,,CLR,0.00,VWS V13.01,2013-08-07 09:53:00,
2013-08-07 05:58:00,65.3,62.3,29.87,SE,127,0.0,5.0,90,0.00,,CLR,0.00,VWS V13.01,2013-08-07 09:58:00,
2013-08-07 06:03:00,65.3,62.3,29.87,SE,125,2.0,4.0,90,0.00,,CLR,0.00,VWS V13.01,2013-08-07 10:03:00,
2013-08-07 06:08:00,65.3,62.3,29.87,SSE,161,4.0,5.0,90,0.00,,CLR,0.00,VWS V13.01,2013-08-07 10:08:00,
2013-08-07 06:13:00,65.2,62.2,29.87,SSE,152,0.0,7.0,90,0.00,,CLR,0.00,VWS V13.01,2013-08-07 10:13:00,
2013-08-07 06:18:00,65.2,62.2,29.87,SSE,161,2.0,7.0,90,0.00,,CLR,0.00,VWS V13.01,2013-08-07 10:18:00,
2013-08-07 06:23:00,65.1,62.1,29.87,SSE,148,4.0,7.0,90,0.00,,CLR,0.00,VWS V13.01,2013-08-07 10:23:00,
2013-08-07 06:28:00,65.0,62.3,29.87,SSE,150,0.0,7.0,91,0.00,,CLR,0.00,VWS V13.01,2013-08-07 10:28:00,
2013-08-07 06:33:00,64.9,62.2,29.87,SE,130,0.0,1.0,91,0.00,,CLR,0.00,VWS V13.01,2013-08-07 10:33:00,
2013-08-07 06:38:00,64.9,62.2,29.87,SE,128,0.0,5.0,91,0.00,,CLR,0.00,VWS V13.01,2013-08-07 10:38:00,
2013-08-07 06:43:00,64.9,62.2,29.87,SE,136,0.0,9.0,91,0.00,,CLR,0.00,VWS V13.01,2013-08-07 10:43:00,
2013-08-07 06:48:00,64.9,62.2,29.87,SE,143,0.0,9.0,91,0.00,,CLR,0.00,VWS V13.01,2013-08-07 10:48:00,
2013-08-07 06:53:00,64.9,62.2,29.87,SSE,148,1.0,9.0,91,0.00,,CLR,0.00,VWS V13.01,2013-08-07 10:53:00,
2013-08-07 06:58:00,65.0,62.3,29.88,South,180,0.0,9.0,91,0.00,,CLR,0.00,VWS V13.01,2013-08-07 10:58:00,
2013-08-07 07:03:00,65.2,62.5,29.88,ENE,75,1.0,2.0,91,0.00,,CLR,0.00,VWS V13.01,2013-08-07 11:03:00,
2013-08-07 07:08:00,65.3,62.6,29.88,South,170,0.0,4.0,91,0.00,,CLR,0.00,VWS V13.01,2013-08-07 11:08:00,
2013-08-07 07:13:00,65.4,62.7,29.88,SE,146,1.0,5.0,91,0.00,,CLR,0.00,VWS V13.01,2013-08-07 11:13:00,
2013-08-07 07:18:00,65.5,62.8,29.88,SE,136,0.0,5.0,91,0.00,,CLR,0.00,VWS V13.01,2013-08-07 11:18:00,
2013-08-07 07:23:00,65.5,62.8,29.88,SE,146,0.0,6.0,91,0.00,,CLR,0.00,VWS V13.01,2013-08-07 11:23:00,
2013-08-07 07:28:00,65.6,62.9,29.88,SSE,152,0.0,6.0,91,0.00,,CLR,0.00,VWS V13.01,2013-08-07 11:28:00,
2013-08-07 07:33:00,65.7,63.0,29.88,SSE,164,0.0,7.0,91,0.00,,CLR,0.00,VWS V13.01,2013-08-07 11:33:00,
2013-08-07 07:38:00,65.9,63.2,29.88,SSE,160,1.0,7.0,91,0.00,,CLR,0.00,VWS V13.01,2013-08-07 11:38:00,
2013-08-07 07:43:00,66.2,63.5,29.88,SSE,159,0.0,7.0,91,0.00,,CLR,0.00,VWS V13.01,2013-08-07 11:43:00,
2013-08-07 07:48:00,66.5,63.8,29.88,SE,136,0.0,7.0,91,0.00,,CLR,0.00,VWS V13.01,2013-08-07 11:48:00,
2013-08-07 07:53:00,66.8,63.8,29.88,SE,146,4.0,7.0,90,0.00,,CLR,0.00,VWS V13.01,2013-08-07 11:53:00,
2013-08-07 07:58:00,67.1,64.1,29.88,ESE,122,0.0,7.0,90,0.00,,CLR,0.00,VWS V13.01,2013-08-07 11:58:00,
2013-08-07 08:03:00,67.3,64.3,29.88,SSE,153,0.0,3.0,90,0.00,,FEW080,0.00,VWS V13.01,2013-08-07 12:03:00,
2013-08-07 08:08:00,67.5,64.2,29.88,SE,128,0.0,5.0,89,0.00,,FEW080,0.00,VWS V13.01,2013-08-07 12:08:00,
2013-08-07 08:13:00,67.7,64.3,29.88,SSE,152,1.0,5.0,89,0.00,,FEW080,0.00,VWS V13.01,2013-08-07 12:13:00,
2013-08-07 08:18:00,67.9,64.5,29.88,ESE,123,0.0,5.0,89,0.00,,FEW080,0.00,VWS V13.01,2013-08-07 12:18:00,
2013-08-07 08:23:00,68.2,64.5,29.88,ESE,117,0.0,7.0,88,0.00,,FEW080,0.00,VWS V13.01,2013-08-07 12:23:00,
2013-08-07 08:28:00,68.5,64.8,29.88,SE,141,0.0,7.0,88,0.00,,FEW080,0.00,VWS V13.01,2013-08-07 12:28:00,
2013-08-07 08:33:00,68.9,65.2,29.88,SE,142,0.0,1.0,88,0.00,,FEW080,0.00,VWS V13.01,2013-08-07 12:33:00,
2013-08-07 08:38:00,69.1,65.1,29.88,SE,131,0.0,6.0,87,0.00,,FEW080,0.00,VWS V13.01,2013-08-07 12:38:00,
2013-08-07 08:43:00,69.4,65.4,29.88,SE,140,1.0,6.0,87,0.00,,FEW080,0.00,VWS V13.01,2013-08-07 12:43:00,
2013-08-07 08:48:00,69.6,65.2,29.88,SSE,167,1.0,6.0,86,0.00,,FEW080,0.00,VWS V13.01,2013-08-07 12:48:00,
2013-08-07 08:53:00,69.8,65.4,29.88,ESE,105,0.0,6.0,86,0.00,,FEW080,0.00,VWS V13.01,2013-08-07 12:53:00,
2013-08-07 08:58:00,70.0,65.6,29.88,SE,141,0.0,8.0,86,0.00,,FEW080,0.00,VWS V13.01,2013-08-07 12:58:00,
2013-08-07 09:03:00,70.3,65.6,29.88,ESE,120,0.0,3.0,85,0.00,,CLR,0.00,VWS V13.01,2013-08-07 13:03:00,
2013-08-07 09:08:00,70.6,65.9,29.88,ESE,120,0.0,3.0,85,0.00,,CLR,0.00,VWS V13.01,2013-08-07 13:08:00,
2013-08-07 09:13:00,71.0,66.3,29.87,ESE,121,1.0,3.0,85,0.00,,CLR,0.00,VWS V13.01,2013-08-07 13:13:00,
2013-08-07 09:18:00,71.3,66.2,29.87,SE,141,0.0,3.0,84,0.00,,CLR,0.00,VWS V13.01,2013-08-07 13:18:00,
2013-08-07 09:23:00,71.7,66.6,29.87,SE,140,0.0,3.0,84,0.00,,CLR,0.00,VWS V13.01,2013-08-07 13:23:00,
2013-08-07 09:28:00,72.1,66.7,29.87,ESE,119,1.0,9.0,83,0.00,,CLR,0.00,VWS V13.01,2013-08-07 13:28:00,
2013-08-07 09:33:00,72.6,67.2,29.87,SE,141,0.0,3.0,83,0.00,,CLR,0.00,VWS V13.01,2013-08-07 13:33:00,
2013-08-07 09:38:00,73.0,66.5,29.87,South,183,2.0,4.0,80,0.00,,CLR,0.00,VWS V13.01,2013-08-07 13:38:00,
2013-08-07 09:43:00,73.3,66.8,29.86,ESE,119,0.0,4.0,80,0.00,,CLR,0.00,VWS V13.01,2013-08-07 13:43:00,
2013-08-07 09:48:00,73.6,66.7,29.86,SSW,210,0.0,5.0,79,0.00,,CLR,0.00,VWS V13.01,2013-08-07 13:48:00,
2013-08-07 09:53:00,73.9,67.0,29.86,South,173,0.0,5.0,79,0.00,,CLR,0.00,VWS V13.01,2013-08-07 13:53:00,
2013-08-07 09:58:00,74.2,67.3,29.86,ESE,118,0.0,7.0,79,0.00,,CLR,0.00,VWS V13.01,2013-08-07 13:58:00,
2013-08-07 10:03:00,74.3,67.0,29.87,SW,216,1.0,4.0,78,0.00,,CLR,0.00,VWS V13.01,2013-08-07 14:03:00,
2013-08-07 10:09:00,74.6,67.7,29.86,SSE,153,0.0,4.0,79,0.00,,CLR,0.00,VWS V13.01,2013-08-07 14:09:00,
2013-08-07 10:14:00,74.8,67.5,29.87,SE,134,3.0,4.0,78,0.00,,CLR,0.00,VWS V13.01,2013-08-07 14:14:00,
2013-08-07 10:19:00,75.1,68.2,29.87,SSE,159,1.0,6.0,79,0.00,,CLR,0.00,VWS V13.01,2013-08-07 14:19:00,
2013-08-07 10:24:00,75.4,67.7,29.87,SSE,160,0.0,6.0,77,0.00,,CLR,0.00,VWS V13.01,2013-08-07 14:24:00,
2013-08-07 10:29:00,76.0,68.7,29.87,SE,136,3.0,6.0,78,0.00,,CLR,0.00,VWS V13.01,2013-08-07 14:29:00,
2013-08-07 10:34:00,76.4,68.3,29.87,SE,144,3.0,3.0,76,0.00,,CLR,0.00,VWS V13.01,2013-08-07 14:34:00,
2013-08-07 10:39:00,76.6,68.1,29.87,SSE,157,3.0,4.0,75,0.00,,CLR,0.00,VWS V13.01,2013-08-07 14:39:00,
2013-08-07 10:44:00,76.6,68.1,29.86,East,94,1.0,4.0,75,0.00,,CLR,0.00,VWS V13.01,2013-08-07 14:44:00,
2013-08-07 10:49:00,76.4,68.3,29.86,ESE,121,1.0,4.0,76,0.00,,CLR,0.00,VWS V13.01,2013-08-07 14:49:00,
2013-08-07 10:54:00,77.1,69.7,29.85,ESE,122,0.0,4.0,78,0.00,,CLR,0.00,VWS V13.01,2013-08-07 14:54:00,
2013-08-07 10:59:00,77.6,68.7,29.86,ESE,122,0.0,4.0,74,0.00,,CLR,0.00,VWS V13.01,2013-08-07 14:59:00,
2013-08-07 11:04:00,78.4,69.8,29.85,ENE,74,1.0,3.0,75,0.00,,CLR,0.00,VWS V13.01,2013-08-07 15:04:00,
2013-08-07 11:09:00,78.0,68.2,29.86,East,80,3.0,3.0,72,0.00,,CLR,0.00,VWS V13.01,2013-08-07 15:09:00,
2013-08-07 11:14:00,78.1,69.5,29.86,East,95,2.0,3.0,75,0.00,,CLR,0.00,VWS V13.01,2013-08-07 15:14:00,
2013-08-07 11:19:00,78.7,70.1,29.86,South,182,0.0,4.0,75,0.00,,,0.00,VWS V13.01,2013-08-07 15:19:00,
2013-08-07 11:24:00,79.1,68.9,29.85,SSW,200,1.0,4.0,71,0.00,,,0.00,VWS V13.01,2013-08-07 15:24:00,
2013-08-07 11:29:00,79.0,69.2,29.85,SSW,200,0.0,4.0,72,0.00,,,0.00,VWS V13.01,2013-08-07 15:29:00,
2013-08-07 11:34:00,78.8,69.0,29.85,SSW,212,0.0,3.0,72,0.00,,,0.00,VWS V13.01,2013-08-07 15:34:00,
2013-08-07 11:39:00,78.7,69.3,29.86,SW,233,1.0,5.0,73,0.00,,,0.00,VWS V13.01,2013-08-07 15:39:00,
2013-08-07 11:44:00,78.4,69.0,29.86,SW,231,0.0,5.0,73,0.00,,,0.00,VWS V13.01,2013-08-07 15:44:00,
2013-08-07 11:49:00,78.5,70.7,29.85,SW,231,0.0,5.0,77,0.00,,,0.00,VWS V13.01,2013-08-07 15:49:00,
2013-08-07 11:54:00,79.1,70.5,29.85,ESE,110,0.0,5.0,75,0.00,,,0.00,VWS V13.01,2013-08-07 15:54:00,
2013-08-07 11:59:00,79.8,71.2,29.85,ESE,118,0.0,5.0,75,0.00,,,0.00,VWS V13.01,2013-08-07 15:59:00,
2013-08-07 12:04:00,80.4,71.0,29.85,SSE,150,1.0,7.0,73,0.00,,BKN090,0.00,VWS V13.01,2013-08-07 16:04:00,
2013-08-07 12:09:00,80.5,71.1,29.85,ESE,117,0.0,7.0,73,0.00,,BKN090,0.00,VWS V13.01,2013-08-07 16:09:00,
2013-08-07 12:14:00,80.6,71.2,29.85,South,188,0.0,7.0,73,0.00,,BKN090,0.00,VWS V13.01,2013-08-07 16:14:00,
2013-08-07 12:19:00,80.6,70.8,29.85,SSW,209,2.0,7.0,72,0.00,,BKN090,0.00,VWS V13.01,2013-08-07 16:19:00,
2013-08-07 12:24:00,80.5,70.7,29.85,South,187,3.0,7.0,72,0.00,,BKN090,0.00,VWS V13.01,2013-08-07 16:24:00,
2013-08-07 12:29:00,80.7,71.2,29.84,SE,142,0.0,7.0,73,0.00,,BKN090,0.00,VWS V13.01,2013-08-07 16:29:00,
2013-08-07 12:34:00,81.0,71.1,29.84,South,181,1.0,5.0,72,0.00,,BKN090,0.00,VWS V13.01,2013-08-07 16:34:00,
2013-08-07 12:39:00,80.8,70.5,29.84,ENE,77,0.0,7.0,71,0.00,,BKN090,0.00,VWS V13.01,2013-08-07 16:39:00,
2013-08-07 12:44:00,80.7,71.2,29.84,ESE,122,1.0,7.0,73,0.00,,BKN090,0.00,VWS V13.01,2013-08-07 16:44:00,
2013-08-07 12:49:00,80.3,71.3,29.85,SSW,193,0.0,7.0,74,0.00,,BKN090,0.00,VWS V13.01,2013-08-07 16:49:00,
2013-08-07 12:54:00,79.9,70.5,29.84,SSW,203,0.0,7.0,73,0.00,,BKN090,0.00,VWS V13.01,2013-08-07 16:54:00,
2013-08-07 12:59:00,79.6,70.6,29.84,East,94,0.0,7.0,74,0.00,,BKN090,0.00,VWS V13.01,2013-08-07 16:59:00,
2013-08-07 13:04:00,79.1,70.1,29.84,East,94,0.0,2.0,74,0.00,,FEW037,0.00,VWS V13.01,2013-08-07 17:04:00,
2013-08-07 13:09:00,78.6,70.0,29.84,East,94,0.0,3.0,75,0.00,,FEW037,0.00,VWS V13.01,2013-08-07 17:09:00,
2013-08-07 13:14:00,78.1,70.7,29.85,SW,228,0.0,3.0,78,0.00,,FEW037,0.00,VWS V13.01,2013-08-07 17:14:00,
2013-08-07 13:19:00,77.4,70.4,29.85,SW,228,0.0,3.0,79,0.00,,FEW037,0.00,VWS V13.01,2013-08-07 17:19:00,
2013-08-07 13:24:00,76.8,70.2,29.86,SW,228,0.0,3.0,80,0.00,,FEW037,0.00,VWS V13.01,2013-08-07 17:24:00,
2013-08-07 13:29:00,76.5,70.6,29.86,SW,228,0.0,3.0,82,0.00,,FEW037,0.00,VWS V13.01,2013-08-07 17:29:00,
2013-08-07 13:35:00,76.2,70.3,29.86,SW,228,0.0,1.0,82,0.00,,FEW037,0.00,VWS V13.01,2013-08-07 17:35:00,
2013-08-07 13:40:00,76.0,70.8,29.85,SW,228,0.0,1.0,84,0.00,,FEW037,0.00,VWS V13.01,2013-08-07 17:40:00,
2013-08-07 13:45:00,75.8,71.0,29.85,SW,228,0.0,1.0,85,0.00,,FEW037,0.00,VWS V13.01,2013-08-07 17:45:00,
2013-08-07 13:50:00,75.7,71.2,29.85,SW,228,0.0,1.0,86,0.01,,FEW037,0.01,VWS V13.01,2013-08-07 17:50:00,
2013-08-07 13:55:00,75.6,71.1,29.85,SSW,212,1.0,3.0,86,0.01,,FEW037,0.01,VWS V13.01,2013-08-07 17:55:00,
2013-08-07 14:00:00,75.5,71.0,29.84,SSW,212,0.0,3.0,86,0.01,,FEW037,0.01,VWS V13.01,2013-08-07 18:00:00,
2013-08-07 14:05:00,75.7,71.9,29.84,SSW,212,0.0,1.0,88,0.01,,-RA,0.01,VWS V13.01,2013-08-07 18:05:00,
2013-08-07 14:10:00,76.0,71.9,29.84,SE,140,0.0,4.0,87,0.01,,-RA,0.01,VWS V13.01,2013-08-07 18:10:00,
2013-08-07 14:15:00,76.4,72.2,29.84,SE,140,0.0,4.0,87,0.01,,-RA,0.01,VWS V13.01,2013-08-07 18:15:00,
2013-08-07 14:20:00,76.7,72.2,29.84,SE,140,0.0,4.0,86,0.01,,-RA,0.01,VWS V13.01,2013-08-07 18:20:00,
2013-08-07 14:25:00,77.1,72.2,29.83,East,88,1.0,4.0,85,0.01,,-RA,0.01,VWS V13.01,2013-08-07 18:25:00,
2013-08-07 14:30:00,77.2,72.0,29.84,ESE,118,0.0,8.0,84,0.01,,-RA,0.01,VWS V13.01,2013-08-07 18:30:00,
2013-08-07 14:35:00,77.3,72.1,29.83,SE,140,2.0,3.0,84,0.01,,-RA,0.01,VWS V13.01,2013-08-07 18:35:00,
2013-08-07 14:40:00,77.3,71.7,29.83,SSE,148,0.0,3.0,83,0.01,,-RA,0.01,VWS V13.01,2013-08-07 18:40:00,
2013-08-07 14:45:00,77.1,71.2,29.83,South,183,0.0,6.0,82,0.01,,-RA,0.01,VWS V13.01,2013-08-07 18:45:00,
2013-08-07 14:50:00,77.2,72.0,29.83,SE,144,0.0,6.0,84,0.01,,-RA,0.01,VWS V13.01,2013-08-07 18:50:00,
2013-08-07 14:55:00,77.4,71.8,29.83,ESE,118,0.0,6.0,83,0.01,,-RA,0.01,VWS V13.01,2013-08-07 18:55:00,
2013-08-07 15:00:00,77.8,71.9,29.83,South,184,4.0,6.0,82,0.01,,-RA,0.01,VWS V13.01,2013-08-07 19:00:00,
2013-08-07 15:05:00,77.9,71.6,29.83,ENE,76,2.0,5.0,81,0.00,,CLR,0.01,VWS V13.01,2013-08-07 19:05:00,
2013-08-07 15:10:00,77.8,71.5,29.83,South,169,0.0,5.0,81,0.00,,CLR,0.01,VWS V13.01,2013-08-07 19:10:00,
2013-08-07 15:15:00,77.6,71.3,29.84,SSW,203,1.0,6.0,81,0.00,,CLR,0.01,VWS V13.01,2013-08-07 19:15:00,
2013-08-07 15:20:00,77.5,71.6,29.83,ESE,120,1.0,7.0,82,0.00,,CLR,0.01,VWS V13.01,2013-08-07 19:20:00,
2013-08-07 15:25:00,77.4,71.5,29.83,SSW,195,0.0,7.0,82,0.00,,CLR,0.01,VWS V13.01,2013-08-07 19:25:00,
2013-08-07 15:30:00,77.4,71.5,29.83,SE,130,2.0,7.0,82,0.00,,CLR,0.01,VWS V13.01,2013-08-07 19:30:00,
2013-08-07 15:35:00,77.5,71.9,29.83,SE,138,2.0,3.0,83,0.00,,CLR,0.01,VWS V13.01,2013-08-07 19:35:00,
2013-08-07 15:40:00,78.0,72.1,29.83,SSE,158,2.0,5.0,82,0.00,,CLR,0.01,VWS V13.01,2013-08-07 19:40:00,
2013-08-07 15:45:00,78.7,72.4,29.82,SW,220,2.0,6.0,81,0.00,,CLR,0.01,VWS V13.01,2013-08-07 19:45:00,
2013-08-07 15:50:00,78.9,72.2,29.81,SSE,168,0.0,7.0,80,0.00,,CLR,0.01,VWS V13.01,2013-08-07 19:50:00,
2013-08-07 15:55:00,79.1,72.8,29.80,SSW,196,2.0,7.0,81,0.00,,CLR,0.01,VWS V13.01,2013-08-07 19:55:00,
2013-08-07 16:00:00,79.8,72.7,29.80,ESE,118,0.0,7.0,79,0.00,,CLR,0.01,VWS V13.01,2013-08-07 20:00:00,
2013-08-07 16:05:00,80.5,73.4,29.80,ESE,117,0.0,7.0,79,0.00,,CLR,0.01,VWS V13.01,2013-08-07 20:05:00,
2013-08-07 16:11:00,80.9,72.6,29.80,South,185,1.0,7.0,76,0.00,,CLR,0.01,VWS V13.01,2013-08-07 20:11:00,
2013-08-07 16:16:00,81.0,72.7,29.80,SE,134,2.0,7.0,76,0.00,,CLR,0.01,VWS V13.01,2013-08-07 20:16:00,
2013-08-07 16:21:00,80.8,72.5,29.80,South,182,0.0,7.0,76,0.00,,CLR,0.01,VWS V13.01,2013-08-07 20:21:00,
2013-08-07 16:26:00,80.7,71.7,29.80,East,84,1.0,7.0,74,0.00,,CLR,0.01,VWS V13.01,2013-08-07 20:26:00,
2013-08-07 16:31:00,80.1,71.1,29.79,SE,142,1.0,1.0,74,0.00,,CLR,0.01,VWS V13.01,2013-08-07 20:31:00,
2013-08-07 16:36:00,79.0,70.8,29.79,South,184,2.0,4.0,76,0.00,,CLR,0.01,VWS V13.01,2013-08-07 20:36:00,
2013-08-07 16:41:00,78.7,70.9,29.80,SSE,163,1.0,4.0,77,0.00,,CLR,0.01,VWS V13.01,2013-08-07 20:41:00,
2013-08-07 16:46:00,78.7,71.3,29.81,South,171,0.0,4.0,78,0.00,,CLR,0.01,VWS V13.01,2013-08-07 20:46:00,
2013-08-07 16:51:00,78.4,70.6,29.81,SE,130,1.0,4.0,77,0.00,,CLR,0.01,VWS V13.01,2013-08-07 20:51:00,
2013-08-07 16:56:00,77.8,70.0,29.82,South,180,0.0,4.0,77,0.00,,CLR,0.01,VWS V13.01,2013-08-07 20:56:00,
2013-08-07 17:01:00,77.4,70.4,29.82,South,187,0.0,1.0,79,0.00,,CLR,0.01,VWS V13.01,2013-08-07 21:01:00,
2013-08-07 17:06:00,77.1,70.1,29.82,SSW,194,0.0,3.0,79,0.00,,CLR,0.01,VWS V13.01,2013-08-07 21:06:00,
2013-08-07 17:11:00,77.1,70.1,29.82,SE,124,0.0,9.0,79,0.00,,CLR,0.01,VWS V13.01,2013-08-07 21:11:00,
2013-08-07 17:16:00,77.1,70.1,29.82,SE,136,1.0,9.0,79,0.00,,CLR,0.01,VWS V13.01,2013-08-07 21:16:00,
2013-08-07 17:21:00,77.1,69.3,29.81,SE,146,1.0,9.0,77,0.00,,CLR,0.01,VWS V13.01,2013-08-07 21:21:00,
2013-08-07 17:26:00,77.5,70.1,29.81,SSE,148,1.0,9.0,78,0.00,,CLR,0.01,VWS V13.01,2013-08-07 21:26:00,
2013-08-07 17:31:00,78.4,70.6,29.80,SSE,148,0.0,2.0,77,0.00,,CLR,0.01,VWS V13.01,2013-08-07 21:31:00,
2013-08-07 17:36:00,79.0,70.4,29.80,SSE,148,1.0,3.0,75,0.00,,CLR,0.01,VWS V13.01,2013-08-07 21:36:00,
2013-08-07 17:41:00,79.2,70.2,29.80,ESE,123,0.0,7.0,74,0.00,,CLR,0.01,VWS V13.01,2013-08-07 21:41:00,
2013-08-07 17:46:00,78.7,69.7,29.80,SE,133,0.0,7.0,74,0.00,,CLR,0.01,VWS V13.01,2013-08-07 21:46:00,
2013-08-07 17:51:00,78.3,69.3,29.81,SSE,151,0.0,7.0,74,0.00,,CLR,0.01,VWS V13.01,2013-08-07 21:51:00,
2013-08-07 17:56:00,78.1,69.1,29.80,East,101,1.0,7.0,74,0.00,,CLR,0.01,VWS V13.01,2013-08-07 21:56:00,
2013-08-07 18:01:00,78.0,69.1,29.81,ESE,107,0.0,1.0,74,0.00,,CLR,0.01,VWS V13.01,2013-08-07 22:01:00,
2013-08-07 18:06:00,77.9,68.9,29.81,SSW,194,3.0,4.0,74,0.00,,CLR,0.01,VWS V13.01,2013-08-07 22:06:00,
2013-08-07 18:11:00,77.8,68.9,29.81,SW,222,0.0,5.0,74,0.00,,CLR,0.01,VWS V13.01,2013-08-07 22:11:00,
2013-08-07 18:16:00,77.6,67.9,29.81,SSW,192,0.0,5.0,72,0.00,,CLR,0.01,VWS V13.01,2013-08-07 22:16:00,
2013-08-07 18:21:00,77.6,68.7,29.80,ENE,70,0.0,5.0,74,0.00,,CLR,0.01,VWS V13.01,2013-08-07 22:21:00,
2013-08-07 18:26:00,77.6,69.1,29.80,ESE,103,0.0,5.0,75,0.00,,CLR,0.01,VWS V13.01,2013-08-07 22:26:00,
2013-08-07 18:31:00,77.6,68.7,29.80,ESE,110,0.0,5.0,74,0.00,,CLR,0.01,VWS V13.01,2013-08-07 22:31:00,
2013-08-07 18:36:00,77.6,68.7,29.81,SSW,210,1.0,3.0,74,0.00,,CLR,0.01,VWS V13.01,2013-08-07 22:36:00,
2013-08-07 18:41:00,77.5,69.0,29.80,WSW,251,0.0,6.0,75,0.00,,CLR,0.01,VWS V13.01,2013-08-07 22:41:00,
2013-08-07 18:47:00,77.5,69.3,29.80,WSW,251,0.0,6.0,76,0.00,,CLR,0.01,VWS V13.01,2013-08-07 22:47:00,
2013-08-07 18:52:00,77.5,69.3,29.80,WSW,251,0.0,6.0,76,0.00,,CLR,0.01,VWS V13.01,2013-08-07 22:52:00,
2013-08-07 18:56:00,77.5,69.3,29.80,WSW,251,0.0,6.0,76,0.00,,CLR,0.01,VWS V13.01,2013-08-07 22:56:00,
2013-08-07 19:01:00,77.4,69.2,29.80,WSW,251,0.0,0.0,76,0.00,,CLR,0.01,VWS V13.01,2013-08-07 23:01:00,
2013-08-07 19:06:00,77.3,69.5,29.80,WSW,250,1.0,1.0,77,0.00,,CLR,0.01,VWS V13.01,2013-08-07 23:06:00,
2013-08-07 19:11:00,77.2,69.4,29.81,WSW,250,0.0,2.0,77,0.00,,CLR,0.01,VWS V13.01,2013-08-07 23:11:00,
2013-08-07 19:17:00,77.1,69.7,29.81,WSW,250,0.0,2.0,78,0.00,,CLR,0.01,VWS V13.01,2013-08-07 23:17:00,
2013-08-07 19:22:00,77.0,69.6,29.81,SSE,164,0.0,2.0,78,0.00,,CLR,0.01,VWS V13.01,2013-08-07 23:22:00,
2013-08-07 19:27:00,76.9,69.2,29.81,SSE,164,0.0,2.0,77,0.00,,CLR,0.01,VWS V13.01,2013-08-07 23:27:00,
2013-08-07 19:32:00,76.9,69.5,29.82,SSE,163,0.0,2.0,78,0.00,,CLR,0.01,VWS V13.01,2013-08-07 23:32:00,
2013-08-07 19:37:00,76.7,68.9,29.82,SSE,163,0.0,2.0,77,0.00,,CLR,0.01,VWS V13.01,2013-08-07 23:37:00,
2013-08-07 19:42:00,76.5,69.1,29.82,SSE,164,0.0,2.0,78,0.00,,CLR,0.01,VWS V13.01,2013-08-07 23:42:00,
2013-08-07 19:47:00,76.4,69.0,29.83,SSE,164,0.0,2.0,78,0.00,,CLR,0.01,VWS V13.01,2013-08-07 23:47:00,
2013-08-07 19:52:00,76.3,69.3,29.83,SSE,164,0.0,2.0,79,0.00,,CLR,0.01,VWS V13.01,2013-08-07 23:52:00,
2013-08-07 19:57:00,76.0,69.0,29.82,SE,140,0.0,4.0,79,0.00,,CLR,0.01,VWS V13.01,2013-08-07 23:57:00,
2013-08-07 20:02:00,75.8,68.8,29.82,SE,137,0.0,0.0,79,0.00,,CLR,0.01,VWS V13.01,2013-08-08 00:02:00,
2013-08-07 20:07:00,75.5,68.9,29.82,SE,137,0.0,0.0,80,0.00,,CLR,0.01,VWS V13.01,2013-08-08 00:07:00,
2013-08-07 20:12:00,75.2,69.0,29.82,SE,137,2.0,2.0,81,0.00,,CLR,0.01,VWS V13.01,2013-08-08 00:12:00,
2013-08-07 20:17:00,74.9,68.7,29.82,SE,137,0.0,2.0,81,0.00,,CLR,0.01,VWS V13.01,2013-08-08 00:17:00,
2013-08-07 20:22:00,74.6,68.8,29.82,SE,137,0.0,2.0,82,0.00,,CLR,0.01,VWS V13.01,2013-08-08 00:22:00,
2013-08-07 20:27:00,74.3,68.4,29.83,SE,137,0.0,2.0,82,0.00,,CLR,0.01,VWS V13.01,2013-08-08 00:27:00,
2013-08-07 20:32:00,74.1,68.3,29.83,SE,137,0.0,0.0,82,0.00,,CLR,0.01,VWS V13.01,2013-08-08 00:32:00,
2013-08-07 20:37:00,73.9,68.4,29.83,SE,137,0.0,1.0,83,0.00,,CLR,0.01,VWS V13.01,2013-08-08 00:37:00,
2013-08-07 20:42:00,73.7,68.2,29.83,SE,138,0.0,1.0,83,0.00,,CLR,0.01,VWS V13.01,2013-08-08 00:42:00,
2013-08-07 20:47:00,73.4,67.9,29.83,SE,137,0.0,1.0,83,0.00,,CLR,0.01,VWS V13.01,2013-08-08 00:47:00,
2013-08-07 20:52:00,73.3,68.2,29.83,SE,137,0.0,1.0,84,0.00,,CLR,0.01,VWS V13.01,2013-08-08 00:52:00,
2013-08-07 20:57:00,73.1,68.0,29.84,SE,137,0.0,1.0,84,0.00,,CLR,0.01,VWS V13.01,2013-08-08 00:57:00,
2013-08-07 21:02:00,73.0,67.9,29.83,SE,138,0.0,1.0,84,0.00,,CLR,0.01,VWS V13.01,2013-08-08 01:02:00,
2013-08-07 21:07:00,72.8,67.7,29.84,SE,137,0.0,1.0,84,0.00,,CLR,0.01,VWS V13.01,2013-08-08 01:07:00,
2013-08-07 21:12:00,72.7,67.6,29.84,SE,137,0.0,1.0,84,0.00,,CLR,0.01,VWS V13.01,2013-08-08 01:12:00,
2013-08-07 21:17:00,72.6,67.5,29.84,SE,137,0.0,2.0,84,0.00,,CLR,0.01,VWS V13.01,2013-08-08 01:17:00,
2013-08-07 21:22:00,72.5,67.4,29.84,SE,132,0.0,3.0,84,0.00,,CLR,0.01,VWS V13.01,2013-08-08 01:22:00,
2013-08-07 21:27:00,72.4,67.3,29.85,SE,133,0.0,3.0,84,0.00,,CLR,0.01,VWS V13.01,2013-08-08 01:27:00,
2013-08-07 21:32:00,72.3,67.2,29.85,SE,137,0.0,2.0,84,0.00,,CLR,0.01,VWS V13.01,2013-08-08 01:32:00,
2013-08-07 21:37:00,72.2,67.1,29.85,SE,138,0.0,2.0,84,0.00,,CLR,0.01,VWS V13.01,2013-08-08 01:37:00,
2013-08-07 21:42:00,72.1,67.0,29.85,SE,137,0.0,2.0,84,0.00,,CLR,0.01,VWS V13.01,2013-08-08 01:42:00,
2013-08-07 21:47:00,72.1,67.3,29.85,SE,137,0.0,3.0,85,0.00,,CLR,0.01,VWS V13.01,2013-08-08 01:47:00,
2013-08-07 21:52:00,72.1,67.3,29.84,SE,138,0.0,3.0,85,0.00,,CLR,0.01,VWS V13.01,2013-08-08 01:52:00,
2013-08-07 21:57:00,72.0,67.2,29.84,SE,137,0.0,3.0,85,0.00,,CLR,0.01,VWS V13.01,2013-08-08 01:57:00,
2013-08-07 22:02:00,72.0,67.2,29.84,SE,137,0.0,1.0,85,0.00,,FEW085,0.01,VWS V13.01,2013-08-08 02:02:00,
2013-08-07 22:07:00,72.0,67.2,29.84,SE,138,0.0,2.0,85,0.00,,FEW085,0.01,VWS V13.01,2013-08-08 02:07:00,
2013-08-07 22:12:00,71.9,67.2,29.84,SE,137,0.0,2.0,85,0.00,,FEW085,0.01,VWS V13.01,2013-08-08 02:12:00,
2013-08-07 22:17:00,72.0,67.2,29.84,SE,138,0.0,2.0,85,0.00,,FEW085,0.01,VWS V13.01,2013-08-08 02:17:00,
2013-08-07 22:22:00,72.0,67.2,29.84,SE,136,0.0,2.0,85,0.00,,FEW085,0.01,VWS V13.01,2013-08-08 02:22:00,
2013-08-07 22:27:00,72.0,67.6,29.84,SE,136,0.0,2.0,86,0.00,,FEW085,0.01,VWS V13.01,2013-08-08 02:27:00,
2013-08-07 22:32:00,72.0,67.6,29.84,SE,136,0.0,2.0,86,0.00,,FEW085,0.01,VWS V13.01,2013-08-08 02:32:00,
2013-08-07 22:37:00,72.0,67.6,29.84,SE,136,0.0,2.0,86,0.00,,FEW085,0.01,VWS V13.01,2013-08-08 02:37:00,
2013-08-07 22:42:00,71.8,67.4,29.84,SE,136,0.0,2.0,86,0.00,,FEW085,0.01,VWS V13.01,2013-08-08 02:42:00,
2013-08-07 22:47:00,71.7,67.3,29.84,SE,129,0.0,2.0,86,0.00,,FEW085,0.01,VWS V13.01,2013-08-08 02:47:00,
2013-08-07 22:52:00,71.7,67.6,29.84,SE,132,0.0,4.0,87,0.00,,FEW085,0.01,VWS V13.01,2013-08-08 02:52:00,
2013-08-07 22:58:00,71.6,67.5,29.84,SE,132,0.0,4.0,87,0.00,,FEW085,0.01,VWS V13.01,2013-08-08 02:58:00,
2013-08-07 23:03:00,71.6,67.9,29.85,SE,134,0.0,1.0,88,0.00,,CLR,0.01,VWS V13.01,2013-08-08 03:03:00,
2013-08-07 23:08:00,71.6,67.9,29.85,SE,134,0.0,1.0,88,0.00,,CLR,0.01,VWS V13.01,2013-08-08 03:08:00,
2013-08-07 23:13:00,71.6,67.9,29.85,ESE,120,5.0,5.0,88,0.00,,CLR,0.01,VWS V13.01,2013-08-08 03:13:00,
2013-08-07 23:18:00,71.6,67.9,29.85,SE,126,0.0,5.0,88,0.00,,CLR,0.01,VWS V13.01,2013-08-08 03:18:00,
2013-08-07 23:23:00,71.6,67.9,29.85,SE,127,0.0,5.0,88,0.00,,CLR,0.01,VWS V13.01,2013-08-08 03:23:00,
2013-08-07 23:28:00,71.6,68.2,29.85,SE,139,5.0,5.0,89,0.00,,CLR,0.01,VWS V13.01,2013-08-08 03:28:00,
2013-08-07 23:33:00,71.6,68.2,29.85,SE,129,0.0,2.0,89,0.00,,CLR,0.01,VWS V13.01,2013-08-08 03:33:00,
2013-08-07 23:38:00,71.6,68.2,29.85,SSE,152,0.0,9.0,89,0.00,,CLR,0.01,VWS V13.01,2013-08-08 03:38:00,
2013-08-07 23:43:00,71.5,68.1,29.85,SSE,153,1.0,9.0,89,0.00,,CLR,0.01,VWS V13.01,2013-08-08 03:43:00,
2013-08-07 23:48:00,71.4,68.0,29.85,SSE,152,0.0,9.0,89,0.00,,CLR,0.01,VWS V13.01,2013-08-08 03:48:00,
2013-08-07 23:53:00,71.3,67.9,29.85,SE,139,0.0,9.0,89,0.00,,CLR,0.01,VWS V13.01,2013-08-08 03:53:00,
2013-08-07 23:58:00,71.3,67.9,29.86,SE,142,0.0,9.0,89,0.00,,CLR,0.01,VWS V13.01,2013-08-08 03:58:00,